Terug naar catalogus

COSMOS 249 DEB

ActiefLEO
NORAD 14430·DEBRIS·🇷🇺 Russia

Gelanceerd Oct 20, 1968 vanaf Baikonur Cosmodrome

Loading…

Volgende Passages (komende 24 uur)

TLE

VersSource: Space-Track

Epoch: Sep 13, 2026, 20:35 UTC

1 14430U 68091CV  26256.85794765  .00001573  00000-0  18889-2 0  9990
2 14430  62.2437  48.3858 0658933 195.0112 320.1889 13.02262976112437

Volg COSMOS 249 DEB in realtime met AllMySat

Download on the App Store